Home   Weather   Bloomington   Past weeks
Flag for USA

Past Weather in Bloomington, Indiana, USA — Yesterday and Last 2 Weeks

Now
77 °F

Sunny.


Feels Like: 79 °F
Forecast: 88 / 65 °F
Wind: 5 mph from Southwest

Location: Monroe County Airport

Current Time: Jun 25, 2019 at 10:14:35 pm

Latest Report: Jun 25, 2019 at 8:53 pm


Visibility: 10 mi

Pressure: 29.98 "Hg

Humidity: 66%

Dew Point: 65 °F

Location of BloomingtonLocation

Past Weather in Bloomington — Graph

°F

Bloomington Temperature Yesterday

Maximum temperature yesterday: 78 °F (at 5:53 pm)
Minimum temperature yesterday: 67 °F (at 11:53 pm)
Average temperature yesterday: 71 °F

High & Low Weather Summary for the Past Weeks

 TemperatureHumidityPressure
High84 °F (Jun 16, 4:53 pm)100% (Jun 11, 4:53 am)30.24 "Hg (Jun 11, 4:53 am)
Low46 °F (Jun 14, 2:53 am)35% (Jun 14, 3:53 pm)29.56 "Hg (Jun 20, 4:53 am)
Average69 °F86%29.90 "Hg
* Reported Jun 10 8:53 pm — Jun 25 8:53 pm, Bloomington. Weather by CustomWeather, © 2019

Note: Actual official high and low records may vary slightly from our data, if they occured in-between our weather recording intervals... More about our weather records

Advertising

Bloomington Weather History for the Previous 24 Hours

Scroll right to see more
 ConditionsComfort  
Time TempWeatherWind HumidityBarometerVisibility
8:53 pm
Tue, Jun 25
77 °FSunny.5 mph66%29.98 "Hg10 mi
7:53 pm80 °FSunny.9 mph56%29.99 "Hg10 mi
6:53 pm82 °FPartly sunny.9 mph53%29.98 "Hg10 mi
5:53 pm83 °FSunny.12 mph51%29.98 "Hg10 mi
4:53 pm83 °FSunny.12 mph53%29.98 "Hg10 mi
3:53 pm83 °FSunny.10 mph51%30.01 "Hg10 mi
2:53 pm82 °FSunny.14 mph51%30.00 "Hg10 mi
1:53 pm81 °FSunny.12 mph54%30.01 "Hg10 mi
12:53 pm80 °FPassing clouds.9 mph56%30.02 "Hg10 mi
11:53 am77 °FSunny.12 mph66%30.02 "Hg10 mi
10:53 am75 °FSunny.7 mph71%30.01 "Hg10 mi
9:53 am72 °FSunny.9 mph76%29.99 "Hg10 mi
8:53 am70 °FSunny.6 mph81%29.98 "Hg10 mi
7:53 am65 °FSunny.7 mph94%29.96 "Hg10 mi
6:53 am63 °FSunny.6 mph97%29.94 "Hg10 mi
5:53 am63 °FClear.3 mph97%29.92 "Hg10 mi
4:53 am64 °FClear.No wind97%29.89 "Hg10 mi
3:53 am64 °FClear.5 mph97%29.88 "Hg10 mi
2:53 am65 °FClear.No wind97%29.87 "Hg10 mi
1:53 am66 °FClear.5 mph96%29.86 "Hg10 mi
12:53 am67 °FClear.5 mph93%29.85 "Hg10 mi
11:53 pm
Mon, Jun 24
67 °FClear.6 mph97%29.83 "Hg10 mi
10:53 pm68 °FPassing clouds.6 mph96%29.82 "Hg10 mi
Weather by CustomWeather, © 2019

See weather overview